Location: Cahas Mountain Overlook
(37.0833°N, 80.1000°W)
Time: 23:36:34
(UTC-05:00)

Vanguard 1 - Pass Details

Date: 05 October 2022
Orbit: 650 x 3831 km, 34.2° (Epoch: 03 December)

Event Time Altitude Azimuth Distance (km) Brightness Sun altitude
Rises 19:29:23 0° 281° (W) 5,591 16.0 -7.1°
Reaches altitude 10° 19:33:59 10° 276° (W) 4,048 14.9 -8.1°
Maximum altitude 19:42:45 40° 211° (SSW) 1,590 11.4 -9.8°
Drops below altitude 10° 19:48:03 10° 141° (SE) 2,454 11.7 -10.9°
Enters shadow 19:49:15 - 136° (SE) 2,861 12.0 -11.1°
